Total_Precipitation_Accumulation
0.31 0.66 1.21 1.79 3.15 3.41 2.53 1.41 0.93 0.72 0.66 0.73 0.69 0.71 0.98 1.42 2.09 3.21 2.97 2.30 1.72 1.68 1.90 2.30 2.69 2.68 2.62 2.60 2.69 2.78 2.81 2.90 2.99 3.41 3.89 3.80 3.94 4.22 4.38 4.79 5.16 5.41 5.56 5.60 5.78 5.62 5.32 5.11 4.58
0.58 1.12 1.61 2.25 3.53 3.34 2.45 1.31 0.87 0.62 0.60 0.69 0.75 0.71 0.70 0.94 1.00 1.48 2.14 2.19 1.63 1.66 1.84 2.08 2.32 2.33 2.33 2.28 2.45 2.71 2.83 2.91 3.08 3.34 3.73 3.76 3.91 4.14 4.43 4.79 4.89 5.22 5.38 5.48 5.33 4.99 4.76 4.48 4.10
0.92 1.38 1.96 2.56 2.50 2.19 1.83 1.18 0.78 0.62 0.59 0.73 0.78 0.61 0.72 1.17 1.10 1.42 1.74 1.64 1.41 1.44 1.68 2.07 2.16 2.20 2.28 2.36 2.67 2.96 3.04 3.12 3.28 3.39 3.67 3.88 3.97 4.00 4.40 4.75 4.76 4.90 4.89 4.82 4.57 4.40 4.35 4.02 3.81
1.12 1.52 1.80 1.97 1.45 1.07 0.93 0.83 0.70 0.69 0.69 0.64 0.71 0.80 0.92 1.15 1.14 1.33 1.37 1.24 1.11 1.21 1.40 1.86 2.10 2.03 2.17 2.59 2.84 2.90 2.93 2.96 3.17 3.42 3.67 3.83 3.79 3.95 4.34 4.46 4.43 4.36 4.39 4.37 4.37 4.34 4.19 3.82 3.69
1.11 1.75 1.92 1.39 0.90 0.80 0.73 0.69 0.71 0.80 0.77 0.80 0.90 1.08 1.40 1.41 1.13 1.29 1.39 1.27 1.10 1.18 1.35 1.66 1.99 1.92 2.04 2.40 2.72 2.74 2.76 2.93 3.10 3.38 3.58 3.69 3.74 3.98 4.21 4.07 4.03 4.05 3.99 4.05 4.31 4.45 4.19 3.97 3.99
1.54 1.86 1.60 0.98 0.72 0.69 0.68 0.65 0.66 0.73 0.78 0.98 1.03 1.06 1.59 1.67 1.34 1.38 1.39 1.57 1.35 1.09 1.17 1.42 1.91 1.97 2.03 2.21 2.56 2.77 2.75 2.86 2.96 3.05 3.25 3.39 3.54 3.68 3.75 3.94 4.16 4.11 3.91 3.89 4.05 4.19 4.21 4.38 4.56
1.51 1.62 1.13 0.70 0.57 0.60 0.52 0.53 0.66 0.77 0.91 1.02 0.92 1.05 1.66 1.97 1.62 1.44 1.43 1.46 1.27 1.05 1.10 1.34 1.64 1.80 2.05 2.43 2.69 2.87 2.87 2.91 2.91 2.93 3.23 3.44 3.61 3.54 3.56 3.82 4.06 4.01 4.06 3.92 3.72 3.59 3.50 3.80 4.06
1.05 1.17 0.90 0.62 0.49 0.53 0.37 0.34 0.50 0.74 0.90 0.80 0.86 1.28 1.84 1.84 1.36 1.27 1.36 1.46 1.33 1.19 1.22 1.43 1.60 1.63 1.71 2.10 2.70 2.95 3.08 3.21 3.27 3.36 3.59 3.87 4.09 4.05 3.93 3.64 3.65 3.77 3.88 4.03 3.68 3.33 3.09 3.22 3.32
0.74 0.99 0.81 0.50 0.38 0.43 0.33 0.31 0.41 0.60 0.69 0.78 0.96 1.15 1.38 1.25 1.07 1.23 1.48 1.76 1.83 1.59 1.52 1.61 1.58 1.57 1.62 1.81 2.29 2.81 3.16 3.53 3.74 3.76 3.76 4.08 4.27 4.26 4.36 3.92 4.14 4.14 4.11 4.16 3.87 3.50 3.13 3.09 2.95
0.67 0.84 0.62 0.36 0.28 0.32 0.30 0.34 0.48 0.70 0.88 1.14 1.47 1.56 1.32 1.19 1.16 1.33 1.64 1.86 2.18 2.01 1.73 1.69 1.62 1.66 1.63 1.61 2.04 2.56 2.65 3.09 3.34 3.41 3.43 3.88 4.31 4.45 4.04 4.53 4.88 4.84 4.77 4.48 4.21 4.01 3.38 2.90 2.74
0.44 0.45 0.31 0.23 0.21 0.24 0.30 0.33 0.40 0.62 1.05 1.59 1.72 1.55 1.28 1.38 1.48 1.55 1.91 2.08 2.07 1.94 2.05 2.07 1.94 1.95 2.01 2.23 2.12 2.38 2.72 2.99 2.95 2.92 3.18 3.68 3.94 4.17 4.00 4.21 4.82 5.02 5.06 4.62 4.40 4.19 3.45 3.23 3.53
0.23 0.26 0.19 0.19 0.19 0.23 0.23 0.24 0.35 0.63 1.12 1.28 1.25 1.19 1.19 1.44 1.58 1.74 2.15 2.32 2.39 2.26 2.54 2.71 2.46 2.56 2.59 2.43 2.32 2.38 2.51 2.70 2.86 3.18 3.22 3.41 3.97 4.39 4.28 4.16 4.28 4.68 4.83 4.99 4.59 4.39 4.04 3.82 3.76
0.17 0.17 0.14 0.13 0.16 0.22 0.20 0.27 0.42 0.81 1.00 0.86 0.75 1.01 1.14 1.49 1.85 2.10 2.41 2.34 2.64 2.83 3.14 3.40 3.05 3.07 3.03 3.04 3.00 2.72 2.80 2.88 3.07 3.31 3.47 3.55 4.00 4.43 4.53 4.35 4.22 4.16 4.20 4.45 4.57 4.37 4.40 4.27 4.05
0.14 0.14 0.13 0.13 0.16 0.19 0.28 0.41 0.57 0.89 0.82 0.72 0.90 1.33 1.55 1.52 1.84 2.25 2.44 2.61 3.01 3.25 3.47 3.65 3.57 3.67 3.60 3.43 3.58 3.55 3.13 3.25 3.22 3.31 3.44 3.60 3.88 4.46 4.68 4.54 4.48 4.15 4.05 4.13 4.43 4.52 4.73 4.58 4.30
0.15 0.20 0.24 0.25 0.28 0.28 0.41 0.78 0.82 0.90 0.78 0.82 1.06 1.41 1.75 1.69 1.85 2.18 2.42 2.96 3.68 4.08 4.04 4.08 4.08 4.41 4.32 3.99 3.73 3.47 3.32 3.34 3.50 3.56 3.64 3.68 3.93 4.50 4.61 4.38 4.03 3.79 3.75 4.10 4.30 4.44 4.61 4.34 4.13
0.20 0.34 0.50 0.42 0.33 0.33 0.48 1.16 1.13 0.95 1.05 1.12 1.28 1.45 1.76 1.83 1.91 2.18 2.66 3.47 4.36 4.91 4.84 4.66 4.24 4.65 4.72 4.50 4.34 3.96 3.72 3.78 3.80 3.54 3.68 3.61 3.81 3.81 4.00 3.77 3.46 3.53 3.66 3.90 4.27 4.34 4.43 4.38 4.32
0.34 0.46 0.57 0.54 0.37 0.35 0.51 1.25 1.23 0.92 1.14 1.38 1.27 1.42 1.67 1.87 2.08 2.24 2.80 3.66 4.54 5.39 5.61 5.57 5.45 5.22 5.03 4.87 4.78 4.60 4.47 4.19 3.81 3.65 3.77 3.51 3.18 3.02 3.33 3.39 3.45 3.31 3.48 3.61 3.41 3.94 4.33 4.35 4.27
0.48 0.46 0.49 0.52 0.40 0.41 0.59 1.02 1.09 1.04 1.17 1.31 1.28 1.32 1.49 1.77 2.21 2.35 2.69 3.44 4.40 5.30 5.87 6.04 6.14 5.90 5.46 4.98 4.66 4.60 4.39 4.16 3.88 3.65 3.69 3.24 3.03 2.87 3.26 3.25 3.26 3.18 3.40 3.57 3.63 4.01 4.20 3.89 3.86
0.32 0.37 0.46 0.48 0.40 0.47 0.72 1.03 1.08 1.10 1.32 1.44 1.47 1.45 1.51 1.79 2.26 2.46 2.77 3.25 4.03 4.82 5.56 5.69 6.06 5.68 5.10 4.57 4.13 4.02 3.87 3.58 3.49 3.35 3.30 3.26 3.09 3.06 3.36 3.18 3.33 3.15 3.23 3.25 3.30 3.59 3.80 3.51 3.53
0.25 0.33 0.43 0.42 0.33 0.42 0.78 1.23 1.32 1.30 1.33 1.34 1.36 1.43 1.50 1.86 2.33 2.68 3.19 3.56 3.57 4.15 4.93 5.01 4.72 4.59 4.23 3.88 3.73 3.58 3.54 3.21 3.08 2.97 3.12 2.95 2.85 2.97 3.01 3.20 3.00 2.95 3.15 3.18 3.26 3.55 3.51 3.24 3.49
0.26 0.32 0.36 0.35 0.34 0.46 0.77 1.44 1.73 1.55 1.26 1.06 1.09 1.20 1.38 1.66 2.15 2.57 2.95 3.37 3.38 3.79 3.92 3.62 3.50 3.61 3.61 3.45 3.36 3.27 3.31 3.12 2.90 2.79 2.89 2.77 2.59 2.66 2.72 2.70 2.75 2.91 2.68 2.99 3.31 3.42 3.49 3.47 3.38
0.22 0.19 0.20 0.23 0.37 0.66 0.80 1.76 2.13 1.73 1.31 1.06 1.09 1.28 1.39 1.47 1.61 1.89 2.18 2.59 2.86 2.97 2.86 2.90 2.93 3.02 3.24 3.22 3.05 2.90 2.67 2.61 2.60 2.55 2.64 2.77 2.51 2.34 2.35 2.37 2.60 2.75 2.71 3.09 2.83 3.00 3.34 3.59 3.34
0.17 0.14 0.17 0.27 0.40 0.70 0.93 1.44 2.07 1.86 1.68 1.41 1.27 1.35 1.25 1.21 1.32 1.52 1.50 1.69 2.00 2.27 2.33 2.38 2.77 2.91 2.92 2.91 2.92 2.98 2.70 2.56 2.56 2.72 2.95 2.93 2.58 2.21 2.05 2.23 2.51 2.67 2.73 2.83 2.80 2.95 2.98 3.07 3.08
0.15 0.20 0.34 0.56 0.75 1.17 1.16 1.31 1.95 1.73 1.46 1.43 1.26 1.11 1.07 1.01 1.07 1.29 1.36 1.39 1.54 1.66 1.77 1.94 2.33 2.59 2.63 2.57 2.56 2.61 2.67 2.70 2.56 2.59 2.72 2.66 2.51 2.33 2.13 2.18 2.49 2.61 2.67 2.74 2.81 2.81 2.73 2.82 2.94
0.19 0.34 0.75 1.25 1.61 1.70 1.15 1.13 1.44 1.24 1.22 1.31 1.06 0.81 0.80 0.89 0.91 1.11 1.15 1.27 1.38 1.34 1.40 1.66 1.99 2.20 2.24 2.25 2.32 2.40 2.63 2.63 2.45 2.30 2.42 2.46 2.32 2.25 2.25 2.21 2.63 2.81 2.80 2.73 2.85 2.84 2.75 2.86 2.95
0.20 0.26 0.52 0.87 1.11 1.28 1.22 1.60 1.55 1.08 1.02 0.93 0.76 0.63 0.64 0.86 0.90 0.93 0.90 0.96 1.16 1.21 1.27 1.44 1.61 1.79 1.89 2.06 2.25 2.28 2.46 2.31 2.24 2.48 2.33 2.22 2.03 2.12 2.39 2.54 2.63 2.70 2.74 2.65 2.96 2.75 2.73 2.85 2.87
0.15 0.16 0.21 0.36 0.49 0.88 1.32 1.72 1.53 1.03 0.96 0.80 0.65 0.61 0.72 0.83 0.85 0.92 0.89 0.87 0.91 0.96 1.16 1.44 1.61 1.67 1.71 1.85 2.08 2.12 2.12 2.18 2.33 2.56 2.51 2.31 2.24 2.15 2.42 2.60 2.74 2.70 2.69 2.83 3.09 2.96 2.95 3.07 2.95
0.13 0.17 0.22 0.33 0.54 0.83 1.21 1.61 1.79 1.47 1.08 0.83 0.74 0.81 1.01 1.02 0.92 0.98 0.89 0.88 0.87 0.88 1.01 1.14 1.33 1.57 1.79 1.79 1.79 1.82 2.08 2.16 2.31 2.44 2.36 2.35 2.36 2.41 2.59 2.63 2.62 2.55 2.52 2.71 3.10 3.05 3.06 3.22 3.15
0.15 0.17 0.20 0.27 0.35 0.58 1.04 1.30 1.24 1.20 0.96 0.82 0.83 1.05 1.00 0.91 0.95 0.99 0.86 0.85 0.85 0.92 0.95 1.13 1.31 1.56 1.76 1.69 1.74 1.94 2.13 2.20 2.29 2.47 2.42 2.38 2.42 2.54 2.61 2.62 2.60 2.50 2.38 2.51 2.75 2.83 3.06 3.13 3.17
0.15 0.17 0.22 0.30 0.30 0.31 0.60 0.95 0.84 0.92 0.91 0.98 1.03 1.03 1.06 1.03 1.06 1.13 1.03 1.10 1.10 1.18 1.18 1.25 1.34 1.51 1.62 1.62 1.75 1.95 2.09 2.14 2.23 2.30 2.41 2.47 2.48 2.61 2.67 2.69 2.63 2.39 2.36 2.50 2.59 2.72 2.94 3.03 3.12